Time,TemperatureF,DewpointF,PressureIn,WindDirection,WindDirectionDegrees,WindSpeedMPH,WindSpeedGustMPH,Humidity,HourlyPrecipIn,Conditions,Clouds,dailyrainin,SoftwareType,DateUTC
2013-01-06 00:17:00,23.6,21.0,30.14,SSE,155,0.0,0.0,91,0.00,,,0.00,weatherlink.com 1.10,2013-01-06 05:17:00,
2013-01-06 00:32:00,24.0,22.0,30.14,SSE,155,0.0,2.0,90,0.00,,,0.00,weatherlink.com 1.10,2013-01-06 05:32:00,
2013-01-06 00:47:00,24.2,22.0,30.14,SSE,155,0.0,1.0,90,0.00,,,0.00,weatherlink.com 1.10,2013-01-06 05:47:00,
2013-01-06 01:02:00,24.3,22.0,30.15,SSE,155,0.0,0.0,89,0.00,,,0.00,weatherlink.com 1.10,2013-01-06 06:02:00,
2013-01-06 01:17:00,24.8,22.0,30.16,SSE,155,0.0,0.0,89,0.00,,,0.00,weatherlink.com 1.10,2013-01-06 06:17:00,
2013-01-06 01:32:00,25.0,22.0,30.18,SSE,155,0.0,0.0,89,0.00,,,0.00,weatherlink.com 1.10,2013-01-06 06:32:00,
2013-01-06 01:47:00,25.2,22.0,30.17,SSE,155,0.0,0.0,88,0.00,,,0.00,weatherlink.com 1.10,2013-01-06 06:47:00,
2013-01-06 02:02:00,25.6,23.0,30.17,SSE,155,0.0,2.0,88,0.00,,,0.00,weatherlink.com 1.10,2013-01-06 07:02:00,
2013-01-06 02:17:00,25.7,22.0,30.15,SSE,155,0.0,0.0,87,0.00,,,0.00,weatherlink.com 1.10,2013-01-06 07:17:00,
2013-01-06 02:33:00,25.8,22.0,30.15,SSE,155,0.0,0.0,86,0.00,,,0.00,weatherlink.com 1.10,2013-01-06 07:33:00,
2013-01-06 02:47:00,26.1,23.0,30.15,SSE,155,0.0,0.0,87,0.00,,,0.00,weatherlink.com 1.10,2013-01-06 07:47:00,
2013-01-06 03:03:00,26.2,23.0,30.13,SSE,155,0.0,0.0,86,0.00,,,0.00,weatherlink.com 1.10,2013-01-06 08:03:00,
2013-01-06 03:18:00,26.5,23.0,30.13,SSE,155,0.0,0.0,85,0.00,,,0.00,weatherlink.com 1.10,2013-01-06 08:18:00,
2013-01-06 03:33:00,26.7,23.0,30.13,SSE,155,0.0,0.0,85,0.00,,,0.00,weatherlink.com 1.10,2013-01-06 08:33:00,
2013-01-06 03:48:00,26.9,23.0,30.11,SSE,155,0.0,1.0,84,0.00,,,0.00,weatherlink.com 1.10,2013-01-06 08:48:00,
2013-01-06 04:03:00,27.1,23.0,30.11,SSE,155,0.0,0.0,84,0.00,,,0.00,weatherlink.com 1.10,2013-01-06 09:03:00,
2013-01-06 04:18:00,27.3,23.0,30.08,SSE,155,0.0,2.0,85,0.00,,,0.00,weatherlink.com 1.10,2013-01-06 09:18:00,
2013-01-06 04:33:00,27.4,24.0,30.10,SSE,155,0.0,2.0,86,0.00,,,0.00,weatherlink.com 1.10,2013-01-06 09:33:00,
2013-01-06 04:48:00,27.5,24.0,30.10,SSE,155,0.0,0.0,88,0.00,,,0.00,weatherlink.com 1.10,2013-01-06 09:48:00,
2013-01-06 05:03:00,27.7,26.0,30.08,SSE,155,0.0,0.0,91,0.00,,,0.00,weatherlink.com 1.10,2013-01-06 10:03:00,
2013-01-06 05:18:00,27.8,26.0,30.08,SSE,155,0.0,1.0,92,0.00,,,0.00,weatherlink.com 1.10,2013-01-06 10:18:00,
2013-01-06 05:33:00,28.2,27.0,30.08,SSE,155,0.0,1.0,93,0.00,,,0.00,weatherlink.com 1.10,2013-01-06 10:33:00,
2013-01-06 05:48:00,28.5,27.0,30.08,SSE,155,0.0,1.0,94,0.00,,,0.00,weatherlink.com 1.10,2013-01-06 10:48:00,
2013-01-06 06:03:00,29.5,28.0,30.08,SSE,155,0.0,2.0,95,0.00,,,0.00,weatherlink.com 1.10,2013-01-06 11:03:00,
2013-01-06 06:18:00,30.0,29.0,30.07,SSE,155,0.0,2.0,94,0.00,,,0.00,weatherlink.com 1.10,2013-01-06 11:18:00,
2013-01-06 06:33:00,30.6,29.0,30.07,SSW,205,0.0,5.0,95,0.00,,,0.00,weatherlink.com 1.10,2013-01-06 11:33:00,
2013-01-06 06:48:00,31.0,30.0,30.06,SSW,201,0.0,4.0,95,0.00,,,0.00,weatherlink.com 1.10,2013-01-06 11:48:00,
2013-01-06 07:03:00,31.3,30.0,30.06,SSW,197,0.0,2.0,95,0.00,,,0.00,weatherlink.com 1.10,2013-01-06 12:03:00,
2013-01-06 07:18:00,31.9,31.0,30.06,SSW,207,1.0,4.0,95,0.00,,,0.00,weatherlink.com 1.10,2013-01-06 12:18:00,
2013-01-06 07:33:00,32.3,31.0,30.06,SSW,206,2.0,5.0,95,0.00,,,0.00,weatherlink.com 1.10,2013-01-06 12:33:00,
2013-01-06 07:48:00,32.6,31.0,30.06,SSW,198,0.0,6.0,95,0.00,,,0.00,weatherlink.com 1.10,2013-01-06 12:48:00,
2013-01-06 08:03:00,33.1,31.0,30.05,SSW,200,0.0,8.0,93,0.00,,,0.00,weatherlink.com 1.10,2013-01-06 13:03:00,
2013-01-06 08:18:00,33.3,31.0,30.05,SSW,211,2.0,8.0,92,0.00,,,0.00,weatherlink.com 1.10,2013-01-06 13:18:00,
2013-01-06 08:33:00,33.5,31.0,30.05,SSW,205,2.0,6.0,91,0.00,,,0.00,weatherlink.com 1.10,2013-01-06 13:33:00,
2013-01-06 08:48:00,34.3,31.0,30.06,SSW,205,0.0,7.0,89,0.00,,,0.00,weatherlink.com 1.10,2013-01-06 13:48:00,
2013-01-06 09:03:00,34.8,32.0,30.05,South,186,4.0,7.0,88,0.00,,,0.00,weatherlink.com 1.10,2013-01-06 14:03:00,
2013-01-06 09:18:00,35.3,32.0,30.05,South,190,4.0,9.0,89,0.00,,,0.00,weatherlink.com 1.10,2013-01-06 14:18:00,
2013-01-06 09:33:00,35.8,33.0,30.05,South,183,1.0,5.0,89,0.00,,,0.00,weatherlink.com 1.10,2013-01-06 14:33:00,
2013-01-06 09:48:00,35.9,33.0,30.05,SSW,203,1.0,8.0,89,0.00,,,0.00,weatherlink.com 1.10,2013-01-06 14:48:00,
2013-01-06 10:03:00,35.9,33.0,30.04,WSW,250,4.0,9.0,90,0.00,,,0.00,weatherlink.com 1.10,2013-01-06 15:03:00,
2013-01-06 10:18:00,35.9,34.0,30.04,SSW,207,1.0,6.0,91,0.01,,,0.01,weatherlink.com 1.10,2013-01-06 15:18:00,
2013-01-06 10:33:00,36.0,34.0,30.02,SW,229,1.0,5.0,91,0.02,,,0.02,weatherlink.com 1.10,2013-01-06 15:33:00,
2013-01-06 10:49:00,36.3,34.0,30.02,SW,215,6.0,7.0,92,0.03,,,0.03,weatherlink.com 1.10,2013-01-06 15:49:00,
2013-01-06 11:04:00,37.3,35.0,30.00,SSW,212,4.0,9.0,91,0.03,,,0.03,weatherlink.com 1.10,2013-01-06 16:04:00,
2013-01-06 11:19:00,38.2,35.0,29.99,West,266,3.0,11.0,88,0.03,,,0.04,weatherlink.com 1.10,2013-01-06 16:19:00,
2013-01-06 11:34:00,38.4,35.0,29.98,WSW,253,3.0,13.0,86,0.03,,,0.05,weatherlink.com 1.10,2013-01-06 16:34:00,
2013-01-06 11:49:00,38.3,35.0,29.96,WSW,248,11.0,18.0,87,0.02,,,0.05,weatherlink.com 1.10,2013-01-06 16:49:00,
2013-01-06 12:04:00,38.6,35.0,29.95,SW,233,6.0,16.0,86,0.02,,,0.05,weatherlink.com 1.10,2013-01-06 17:04:00,
2013-01-06 12:19:00,38.5,35.0,29.95,SW,217,2.0,13.0,86,0.01,,,0.05,weatherlink.com 1.10,2013-01-06 17:19:00,
2013-01-06 12:34:00,38.6,35.0,29.94,SSW,213,8.0,9.0,85,0.00,,,0.05,weatherlink.com 1.10,2013-01-06 17:34:00,
2013-01-06 12:49:00,38.7,34.0,29.93,SSW,208,5.0,11.0,84,0.00,,,0.05,weatherlink.com 1.10,2013-01-06 17:49:00,
2013-01-06 13:04:00,39.1,34.0,29.93,SSW,200,8.0,14.0,83,0.00,,,0.05,weatherlink.com 1.10,2013-01-06 18:04:00,
2013-01-06 13:19:00,39.7,34.0,29.93,WSW,252,7.0,10.0,81,0.00,,,0.05,weatherlink.com 1.10,2013-01-06 18:19:00,
2013-01-06 13:34:00,40.7,34.0,29.93,SW,215,7.0,9.0,77,0.00,,,0.05,weatherlink.com 1.10,2013-01-06 18:34:00,
2013-01-06 13:49:00,40.7,33.0,29.93,SW,222,2.0,13.0,73,0.00,,,0.05,weatherlink.com 1.10,2013-01-06 18:49:00,
2013-01-06 14:04:00,41.1,33.0,29.92,SW,230,2.0,11.0,72,0.00,,,0.05,weatherlink.com 1.10,2013-01-06 19:04:00,
2013-01-06 14:19:00,41.4,32.0,29.91,SW,225,4.0,11.0,70,0.00,,,0.05,weatherlink.com 1.10,2013-01-06 19:19:00,
2013-01-06 14:34:00,41.8,32.0,29.91,SW,224,4.0,9.0,67,0.00,,,0.05,weatherlink.com 1.10,2013-01-06 19:34:00,
2013-01-06 14:49:00,41.9,32.0,29.91,SW,226,4.0,8.0,67,0.00,,,0.05,weatherlink.com 1.10,2013-01-06 19:49:00,
2013-01-06 15:04:00,41.7,31.0,29.90,WSW,255,3.0,8.0,67,0.00,,,0.05,weatherlink.com 1.10,2013-01-06 20:04:00,
2013-01-06 15:34:00,41.2,32.0,29.90,SSW,200,4.0,6.0,69,0.00,,,0.05,weatherlink.com 1.10,2013-01-06 20:34:00,
2013-01-06 15:49:00,41.1,32.0,29.91,SW,234,0.0,5.0,69,0.00,,,0.05,weatherlink.com 1.10,2013-01-06 20:49:00,
2013-01-06 16:04:00,40.5,31.0,29.91,SSW,198,1.0,5.0,70,0.00,,,0.05,weatherlink.com 1.10,2013-01-06 21:04:00,
2013-01-06 16:19:00,39.5,31.0,29.91,South,178,0.0,2.0,71,0.00,,,0.05,weatherlink.com 1.10,2013-01-06 21:19:00,
2013-01-06 16:34:00,38.6,31.0,29.91,South,178,1.0,1.0,74,0.00,,,0.05,weatherlink.com 1.10,2013-01-06 21:34:00,
2013-01-06 16:49:00,37.7,30.0,29.91,South,178,1.0,1.0,75,0.00,,,0.05,weatherlink.com 1.10,2013-01-06 21:49:00,
2013-01-06 17:04:00,36.5,30.0,29.91,South,178,0.0,0.0,77,0.00,,,0.05,weatherlink.com 1.10,2013-01-06 22:04:00,
2013-01-06 17:19:00,35.0,29.0,29.91,South,178,0.0,0.0,80,0.00,,,0.05,weatherlink.com 1.10,2013-01-06 22:19:00,
2013-01-06 17:34:00,33.4,29.0,29.92,South,178,0.0,2.0,83,0.00,,,0.05,weatherlink.com 1.10,2013-01-06 22:34:00,
2013-01-06 17:49:00,32.1,28.0,29.93,South,178,0.0,0.0,84,0.00,,,0.05,weatherlink.com 1.10,2013-01-06 22:49:00,
2013-01-06 18:04:00,31.1,27.0,29.93,South,178,0.0,0.0,86,0.00,,,0.05,weatherlink.com 1.10,2013-01-06 23:04:00,
2013-01-06 18:19:00,30.3,27.0,29.93,South,178,0.0,1.0,88,0.00,,,0.05,weatherlink.com 1.10,2013-01-06 23:19:00,
2013-01-06 18:34:00,31.1,29.0,29.93,South,179,0.0,2.0,91,0.00,,,0.05,weatherlink.com 1.10,2013-01-06 23:34:00,
2013-01-06 18:49:00,32.0,29.0,29.93,South,179,0.0,1.0,89,0.00,,,0.05,weatherlink.com 1.10,2013-01-06 23:49:00,
2013-01-06 19:04:00,31.9,29.0,29.94,South,179,0.0,0.0,88,0.00,,,0.05,weatherlink.com 1.10,2013-01-07 00:04:00,
2013-01-06 19:19:00,31.2,28.0,29.94,South,179,0.0,0.0,89,0.00,,,0.05,weatherlink.com 1.10,2013-01-07 00:19:00,
2013-01-06 19:34:00,29.9,27.0,29.93,South,179,0.0,0.0,89,0.00,,,0.05,weatherlink.com 1.10,2013-01-07 00:34:00,
2013-01-06 19:49:00,28.9,26.0,29.94,South,179,0.0,0.0,90,0.00,,,0.05,weatherlink.com 1.10,2013-01-07 00:49:00,
2013-01-06 20:04:00,28.9,27.0,29.93,South,179,0.0,0.0,92,0.00,,,0.05,weatherlink.com 1.10,2013-01-07 01:04:00,
2013-01-06 20:19:00,28.3,26.0,29.93,South,179,0.0,0.0,92,0.00,,,0.05,weatherlink.com 1.10,2013-01-07 01:19:00,
2013-01-06 20:34:00,28.3,27.0,29.93,South,179,0.0,0.0,93,0.00,,,0.05,weatherlink.com 1.10,2013-01-07 01:34:00,
2013-01-06 20:49:00,29.2,27.0,29.93,South,179,0.0,0.0,91,0.00,,,0.05,weatherlink.com 1.10,2013-01-07 01:49:00,
2013-01-06 21:04:00,29.3,28.0,29.93,South,179,0.0,0.0,93,0.00,,,0.05,weatherlink.com 1.10,2013-01-07 02:04:00,
2013-01-06 21:19:00,28.8,27.0,29.93,South,179,0.0,1.0,93,0.00,,,0.05,weatherlink.com 1.10,2013-01-07 02:19:00,
2013-01-06 21:34:00,28.5,27.0,29.94,South,179,0.0,0.0,92,0.00,,,0.05,weatherlink.com 1.10,2013-01-07 02:34:00,
2013-01-06 21:49:00,28.1,26.0,29.94,South,179,0.0,0.0,93,0.00,,,0.05,weatherlink.com 1.10,2013-01-07 02:49:00,
2013-01-06 22:04:00,27.6,26.0,29.94,South,179,0.0,0.0,93,0.00,,,0.05,weatherlink.com 1.10,2013-01-07 03:04:00,
2013-01-06 22:19:00,27.4,26.0,29.94,South,179,0.0,1.0,94,0.00,,,0.05,weatherlink.com 1.10,2013-01-07 03:19:00,
2013-01-06 22:34:00,28.5,27.0,29.94,South,179,0.0,1.0,95,0.00,,,0.05,weatherlink.com 1.10,2013-01-07 03:34:00,
2013-01-06 22:49:00,29.4,28.0,29.94,South,179,0.0,2.0,95,0.00,,,0.05,weatherlink.com 1.10,2013-01-07 03:49:00,
2013-01-06 23:04:00,29.4,28.0,29.94,South,179,0.0,1.0,94,0.00,,,0.05,weatherlink.com 1.10,2013-01-07 04:04:00,
2013-01-06 23:19:00,29.3,28.0,29.93,SW,221,0.0,3.0,95,0.00,,,0.05,weatherlink.com 1.10,2013-01-07 04:19:00,
2013-01-06 23:34:00,31.1,30.0,29.94,WSW,244,0.0,3.0,95,0.00,,,0.05,weatherlink.com 1.10,2013-01-07 04:34:00,
2013-01-06 23:50:00,31.6,30.0,29.94,SW,229,0.0,3.0,94,0.00,,,0.05,weatherlink.com 1.10,2013-01-07 04:50:00,